Location: Asheville, NC
(35.6000°N, 82.5500°W)
Time: 07:20:40
(UTC-04:00)

Vanguard 1 Rocket - Pass Details

Date: 15 December 2017
Orbit: 652 x 4225 km, 34.3° (Epoch: 18 July)

Event Time Altitude Azimuth Distance (km) Brightness Sun altitude
Rises 22:11:08 0° 284° (WNW) 6,049 12.1 -58.4°
Reaches altitude 10° 22:14:28 10° 281° (WNW) 5,415 11.7 -59.1°
Enters shadow 22:27:16 54° 247° (WSW) 4,046 10.4 -61.6°
Maximum altitude 22:32:20 62° 207° (SSW) 4,116 - -62.6°
Drops below altitude 10° 22:57:55 10° 134° (SE) 7,329 - -67.4°
Sets 23:03:28 0° 131° (SE) 8,180 - -68.4°
